TimeEST,TemperatureF,Dew PointF,Humidity,Sea Level PressureIn,VisibilityMPH,Wind Direction,Wind SpeedMPH,Gust SpeedMPH,PrecipitationIn,Events,Conditions,WindDirDegrees,DateUTC
12:11 AM,3.2,-0.4,85,30.17,9.0,South,3.5,-,N/A,,Overcast,180,2013-01-27 05:11:00
12:18 AM,5.0,-0.4,78,30.17,10.0,SSW,4.6,-,N/A,,Overcast,200,2013-01-27 05:18:00
12:30 AM,5.0,-0.4,78,30.17,10.0,Variable,4.6,-,N/A,,Overcast,0,2013-01-27 05:30:00
12:52 AM,5.0,-0.9,76,30.26,10.0,Calm,Calm,-,N/A,,Overcast,0,2013-01-27 05:52:00
1:07 AM,5.0,-0.4,78,30.18,10.0,SW,3.5,-,N/A,,Overcast,230,2013-01-27 06:07:00
1:38 AM,3.2,-2.2,78,30.19,10.0,WSW,3.5,-,N/A,,Scattered Clouds,240,2013-01-27 06:38:00
1:52 AM,3.9,-2.9,73,30.28,10.0,Calm,Calm,-,N/A,,Clear,0,2013-01-27 06:52:00
2:52 AM,-0.9,-6.0,79,30.30,10.0,Calm,Calm,-,N/A,,Scattered Clouds,0,2013-01-27 07:52:00
3:07 AM,-2.2,-7.6,78,30.22,10.0,SW,3.5,-,N/A,,Mostly Cloudy,220,2013-01-27 08:07:00
3:14 AM,-2.2,-5.8,85,30.22,10.0,Calm,Calm,-,N/A,,Partly Cloudy,0,2013-01-27 08:14:00
3:43 AM,1.4,-2.2,85,30.22,10.0,SSW,4.6,-,N/A,,Mostly Cloudy,210,2013-01-27 08:43:00
3:52 AM,-2.9,-8.0,79,30.32,10.0,Calm,Calm,-,N/A,,Mostly Cloudy,0,2013-01-27 08:52:00
4:26 AM,-5.8,-9.4,84,30.23,10.0,Calm,Calm,-,N/A,,Scattered Clouds,0,2013-01-27 09:26:00
4:52 AM,-6.0,-11.0,79,30.34,10.0,Calm,Calm,-,N/A,,Mostly Cloudy,0,2013-01-27 09:52:00
5:52 AM,-7.1,-13.0,75,30.37,10.0,Calm,Calm,-,N/A,,Overcast,0,2013-01-27 10:52:00
6:23 AM,-7.6,-13.0,77,30.29,8.0,Calm,Calm,-,N/A,,Overcast,0,2013-01-27 11:23:00
6:40 AM,-7.6,-14.8,71,30.30,7.0,Calm,Calm,-,N/A,,Overcast,0,2013-01-27 11:40:00
6:52 AM,-9.0,-14.1,79,30.40,10.0,Calm,Calm,-,N/A,,Mostly Cloudy,0,2013-01-27 11:52:00
6:57 AM,-7.6,-14.8,71,30.30,10.0,Calm,Calm,-,N/A,,Scattered Clouds,0,2013-01-27 11:57:00
7:30 AM,-9.4,-14.8,77,30.32,10.0,Calm,Calm,-,N/A,,Mostly Cloudy,0,2013-01-27 12:30:00
7:52 AM,-9.0,-15.0,75,30.42,8.0,South,3.5,-,N/A,,Overcast,190,2013-01-27 12:52:00
8:05 AM,-7.6,-13.0,77,30.33,10.0,Calm,Calm,-,N/A,,Overcast,0,2013-01-27 13:05:00
8:32 AM,-7.6,-13.0,77,30.34,10.0,Calm,Calm,-,N/A,,Scattered Clouds,0,2013-01-27 13:32:00
8:52 AM,-4.0,-9.9,76,30.43,10.0,Calm,Calm,-,N/A,,Clear,0,2013-01-27 13:52:00
9:52 AM,6.1,-2.9,67,30.45,10.0,WNW,4.6,-,N/A,,Partly Cloudy,290,2013-01-27 14:52:00
10:52 AM,9.0,-2.9,59,30.45,10.0,Variable,3.5,-,N/A,,Clear,0,2013-01-27 15:52:00
11:52 AM,10.9,-2.9,54,30.44,10.0,Variable,4.6,-,N/A,,Clear,0,2013-01-27 16:52:00
12:52 PM,14.0,-4.0,45,30.43,10.0,Variable,6.9,-,N/A,,Clear,0,2013-01-27 17:52:00
1:52 PM,16.0,-5.1,39,30.43,10.0,WNW,11.5,-,N/A,,Clear,290,2013-01-27 18:52:00
2:52 PM,16.0,-5.1,39,30.43,10.0,WNW,3.5,-,N/A,,Clear,290,2013-01-27 19:52:00
3:52 PM,16.0,-6.0,38,30.45,10.0,West,5.8,-,N/A,,Clear,270,2013-01-27 20:52:00
4:52 PM,12.9,-7.1,41,30.47,10.0,WNW,3.5,-,N/A,,Clear,290,2013-01-27 21:52:00
5:52 PM,5.0,-6.0,61,30.51,10.0,SW,3.5,-,N/A,,Clear,220,2013-01-27 22:52:00
6:52 PM,1.0,-8.0,66,30.52,10.0,Calm,Calm,-,N/A,,Clear,0,2013-01-27 23:52:00
7:52 PM,-2.9,-9.9,72,30.52,10.0,Calm,Calm,-,N/A,,Clear,0,2013-01-28 00:52:00
8:52 PM,-6.0,-11.0,79,30.52,10.0,Calm,Calm,-,N/A,,Clear,0,2013-01-28 01:52:00
9:52 PM,-8.0,-14.1,75,30.50,10.0,Calm,Calm,-,N/A,,Clear,0,2013-01-28 02:52:00
10:52 PM,-8.0,-15.0,71,30.49,10.0,Calm,Calm,-,N/A,,Clear,0,2013-01-28 03:52:00
11:52 PM,-9.0,-15.0,75,30.50,10.0,Calm,Calm,-,N/A,,Clear,0,2013-01-28 04:52:00